Regional Weather Roundup
Issued by NWS Wakefield, VA

Home | Current Version | Previous Version | Text Only | Print | Product List | Glossary Off
Versions: 1 2 3 4 5 6 7 8 9 10 11 12 13 14 15 16 17 18 19 20 21 22 23 24 25 26 27 28 29 30 31 32 33 34 35 36 37 38 39 40 41 42 43 44 45 46 47

000
ASUS41 KAKQ 302310
RWRAKQ

REGIONAL WEATHER ROUNDUP
NATIONAL WEATHER SERVICE WAKEFIELD VA
700 PM EDT TUE SEP 30 2014

Note: "fair" indicates few or no clouds below 12,000 feet with no
significant weather and/or obstructions to visibility. * = Denotes
station may not report precipitation (e.g., rain,snow,etc.),
thunder or fog.

VAZ042-051-052>054-056-010000-
NORTHERN VIRGINIA

CITY           SKY/WX    TMP DP  RH WIND       PRES   REMARKS
WASH NATIONAL  PTCLDY    73  63  70 S7        29.88R
DULLES         PTCLDY    67  60  78 SW5       29.88R
FORT BELVOIR   CLEAR     67  64  90 CALM      29.88R
QUANTICO       PTCLDY    69  63  81 NW6       29.89R
FREDERICKSBRG* CLEAR     70  64  82 CALM      29.87R
STAFFORD*      CLEAR     65  65 100 CALM      29.92R
WARRENTON      PTCLDY    66  66  99 CALM      29.88R
CULPEPER*      PTCLDY    68  63  83 CALM      29.90R
MANASSAS*      CLEAR     68  64  88 CALM      29.88R
LEESBURG*      CLEAR     68  64  88 W3        29.89R
WINCHESTER     PTCLDY    68  61  77 E5        29.88R
FRONT ROYAL*   CLEAR     68  59  73 S3        29.85S
LURAY*         LGT RAIN  70  64  83 CALM      29.87R
$$

VAZ048-049-060>072-079>083-010000-
CENTRAL AND SOUTH CENTRAL VIRGINIA...AND NORTH CENTRAL NORTH CAROLINA

CITY           SKY/WX    TMP DP  RH WIND       PRES   REMARKS
RICHMOND       PTCLDY    68  61  78 NE3       29.89R
CHESTERFIELD*  CLEAR    N/A N/A N/A CALM      29.90R
PETERSBURG*    CLEAR     66  62  86 CALM      29.89R
HANOVER        CLEAR     66  63  90 E3        29.90R
TAPPAHANNOCK*  CLEAR     67  62  81 CALM      29.89R
CHARLOTTSVILLE MOCLDY    65  61  87 S5        29.89S
ORANGE*        MOCLDY    66  61  82 CALM      29.91S
LOUISA*        MOCLDY    64  61  88 CALM      29.89R
FARMVILLE*     CLEAR     66  64  94 NE3       29.87R
CREWE*         CLEAR     64  61  90 CALM      29.89S
FORT PICKETT*  CLEAR     65  63  92 CALM      29.89S
LUNENBURG*     CLEAR     65  63  91 CALM      29.89R
SOUTH HILL*    CLEAR     68  68 100 CALM      29.94R
LAWRENCEVILLE* CLEAR     66  64  96 CALM      29.88S
ROANOKE RAPIDS CLEAR     64  63  94 CALM      29.88S
RALEIGH        PTCLDY    70  62  76 E3        29.88S
$$

VAZ088>098-010000-
SOUTHEAST VIRGINIA

CITY           SKY/WX    TMP DP  RH WIND       PRES   REMARKS
NORFOLK        CLEAR     70  61  73 E5        29.87S
VIRGINIA BEACH PTCLDY    71  60  68 E3        29.86S
NORFOLK NAVAL  PTCLDY    71  62  73 E6        29.89R
WEST POINT*    PTCLDY    69  64  84 CALM      29.89R
NEWPORT NEWS   CLEAR     71  63  75 E5        29.88R
LANGLEY AFB    CLEAR     69  67  95 NE6       29.88S
FORT EUSTIS    CLEAR     71  71 100 E2        29.86R
WILLIAMSBURG*  CLEAR     70  66  88 CALM      29.89R
HR EXEC AP*    CLEAR     66  61  82 CALM      29.89S
FRANKLIN*      CLEAR     70  63  78 CALM      29.88R
WAKEFIELD      CLEAR     68  65  90 CALM      29.87R
$$

VAZ020-022-025-037-045-010000-
WEST CENTRAL AND SOUTHWEST VIRGINIA

CITY           SKY/WX    TMP DP  RH WIND       PRES   REMARKS
STAUNTON*      CLOUDY    70  59  67 S3        29.90R
HOT SPRINGS VA CLEAR     62  29  28 W8        30.00R
LYNCHBURG      CLEAR     70  65  84 SE7       29.90R
DANVILLE       CLEAR     73  65  75 VRB3      29.88R
SOUTH BOSTON*  NOT AVBL
MARTINSVILLE   MOCLDY    71  67  88 CALM      29.90R
ROANOKE        PTCLDY    74  55  51 W5        29.90R
BLACKSBURG     PTCLDY    68  61  77 CALM      29.96R
DUBLIN*        CLEAR     71  56  59 CALM      29.96R
MARION*        CLEAR     69  55  61 CALM      29.99R
HILLSVILLE*    PTCLDY    69  55  59 NW6       29.97S
RICHLANDS*     CLEAR     72  53  51 CALM      29.98R
WISE*          CLEAR     70  50  49 W3        30.00R
ABINGDON*      CLEAR     72  58  62 CALM      29.95R
$$

MDZ021>025-VAZ099-100-010000-
SOUTHERN MARYLAND AND THE DELMARVA PENINSULA

CITY           SKY/WX    TMP DP  RH WIND       PRES   REMARKS
PATUXENT RIVER PTCLDY    69  61  75 CALM      29.88R
BAY BRIDGE APT   N/A     70  63  78 CALM      29.88R
LEONARDTOWN    CLEAR     68  61  77 CALM      29.90R
DOVER          MOCLDY    68  62  81 E9        29.88R
GEORGETOWN     CLEAR     68  62  81 E12       29.91R
EASTON         MOCLDY    73  63  68 CALM      29.92R
CAMBRIDGE      MOCLDY    72  63  73 NE3       29.89R
SALISBURY      CLEAR     70  62  76 E6        29.89R
OCEAN CITY     CLEAR     69  62  78 E8        29.89R
WALLOPS ISLAND PTCLDY    70  65  84 E9        29.89R
ACCOMACK*      CLEAR     66  61  82 CALM      29.88R
$$

NCZ012>017-030>032-010000-
EASTERN NORTH CAROLINA

CITY           SKY/WX    TMP DP  RH WIND       PRES   REMARKS
ELIZABETH CITY CLEAR     70  63  78 NE8       29.87R
AHOSKIE*       CLEAR     67  64  89 CALM      29.88S
EDENTON*       CLEAR     70  65  84 NE3       29.87R
CURRITUCK*     CLEAR     71  63  74 NE6       29.88R
KILL DEVIL HLS CLEAR     69  64  83 NE3       29.86R
MANTEO         CLEAR     69  64  83 NE7       29.87R
CAPE HATTERAS  CLEAR     69  65  86 N8        29.84R
TARBORO*       CLEAR     69  64  83 CALM      29.88S
GOLDSBORO      CLEAR     73  68  86 CALM      29.85R
WASHINGTON     CLEAR     71  65  79 CALM      29.86S
GREENVILLE     CLEAR     72  64  78 N5        29.89R
NEW BERN       CLEAR     75  64  68 CALM      29.86R
WILMINGTON     PTCLDY    75  65  70 N5        29.84R
$$

VAZ048-010000-
ELSEWHERE

CITY           SKY/WX    TMP DP  RH WIND       PRES   REMARKS
HARRISBURG PA  MOCLDY    66  62  87 CALM      29.88R
BALTIMORE      PTCLDY    68  59  73 CALM      29.88R
ANNAPOLIS      CLEAR     71  63  75 CALM      29.88R
ANDREWS AFB    CLEAR     69  58  68 E5        29.88R
WILMINGTON DE  CLEAR     71  60  68 S9        29.90R
PHILADELPHIA   MOCLDY    69  59  70 E16       29.91R
WILDWOOD NJ*   CLEAR     66  57  72 NE7       29.92R
ATLANTIC CITY  CLEAR     64  60  87 E7        29.92R
HENDERSON NC   CLEAR     67  64  87 CALM      29.89S
GREENSBORO     PTCLDY    75  59  57 SE3       29.88R
ROCKY MOUNT    CLEAR     69  63  81 NW3       29.88R
FAYETTEVILLE   CLEAR     73  65  75 NE3       29.86R
CHARLOTTE      PTCLDY    76  60  57 CALM      29.89R
$$

VAZ100-010000-
MARINE

STATION/POSITION TIME  TEMP    WIND        PRES    WAVE   SWELL
                       AIR SEA DIR/SP/G            HT/PER HT/PER
                 (UTC) (F)     (DEG/KT/KT) (MB)    (FT/S) (FT/S)
44066 TX TWR #4  2300   67 69   50/ 19/ 23 1011.7R   4/ 5   2/14
CAPE MAY NJ      2300   67 74   60/  4/  7 1012.3R
LEWES DE         2300   68 71  100/  8/ 10 1012.4R
15NM E FENWICK I 2300   69 71              1012.0R   2/ 7
OCEAN-CITY-INLET 2300   69 72   80/  5/  8 1011.8R
WACHAPREAGUE VA  2300   70 76   80/  6/  9 1011.6R
THOMAS POINT MD  2300   72 72  220/  2/  2 1012.9R
GOOSES REEF MD   2300   73     190/  2/  2 1012.2R
COVE POINT MD    2300   71     200/  4/  4 1011.6S
SOLOMONS ISLAND  2300      74                N/A
BISHOPS HEAD MD  2300   72 74  170/  4/  5 1011.4R
PINEY POINT MD   2300          150/  3/  4   N/A
POTOMAC MD       2300   72     160/  2/  4 1011.0R
CAMBRIDGE MD     2300   72 71   40/  3/  4 1011.6R
LEWISETTA VA     2300   72 72  120/  5/  6 1011.4R
RAPPAHANNOCK LGT 2300           90/  4/  4 1012.2R
STINGRAY PT      2300   72     120/  6/  6   N/A
YORK RVR RNG VA  2300   71     100/  7/  8 1011.2R
YORKTOWN VA      2300   71 73  120/  5/  6 1011.4R
JAMESTOWN VA     2300   71      50/  2/  2   N/A
DOMINION TERM VA 2300   71      60/  7/  9 1011.6R
KIPTOPEKE VA     2300      76   70/  3/  3   N/A
CHES BAY BRIDGE  2300   71 72   70/  8/  8 1010.9F
CHESAPEAKE LGHT  2200   70      60/  9/ 10 1012.0R
WILLOUBY STN VA  2300   71      50/  6/  7 1010.3R
S CRANEY ISL VA  2300           50/  6/  8 1011.1S
CAPE HENRY BUOY  2300      73                N/A     2/ 7   2/13
1ST LANDING BUOY 2300   72      70/  6/  8 1011.2S
CAPE CHARLES BUO 2300      73                N/A     2/14   2/14
OFFSHORE WE BUOY 2300      73                N/A     2/14   2/14
64NM E OF VA BCH 2300   71 74   20/ 12/ 14 1010.6R   2/ 8   2/ 8
DUCK PIER NC     2300   71 73   40/ 10/ 11 1010.5S
44100 DUCK FRF   2300      72                N/A     2/ 7
44056 DUCK FRF   2300                        N/A     2/14   2/14
OREGON INLET NC  2300   70 73  360/  7/ 11 1011.0R
HATTERAS NC      2300   72 76   20/ 15/ 18 1010.9R
DIAMOND SHLS NC  2300   74     350/ 17/ 21 1009.8R   4/ 4   2/ 8
CAPE LOOKOUT NC  2200   74      30/ 13/ 15 1010.0R
$$



USA.gov is the U.S. government's official web portal to all federal, state and local government web resources and services.